Weather History for Buckeye, AZ

Change the Weather History Date:

Monday, July 15, 2013

  Actual Average (KGYR) Record (KGYR)
Temperature  
Mean Temperature 94 °F -  
Max Temperature 107 °F 104 °F 116 °F (2010)
Min Temperature 82 °F 79 °F 69 °F (1999)
Cooling Degree Days 30    
Growing Degree Days 44 (Base 50)    
Moisture  
Dew Point 65 °F    
Average Humidity 42    
Maximum Humidity 84    
Minimum Humidity 18    
Precipitation  
Precipitation 0.00 in - - ()
Sea Level Pressure  
Sea Level Pressure 29.74 in    
Wind  
Wind Speed 5 mph (SSW)    
Max Wind Speed 17 mph    
Max Gust Speed 21 mph    
Visibility 10 miles    
Events      
Averages and records for this station are not official NWS values.
T = Trace of Precipitation, MM = Missing Value Source: NWS Daily Summary

Daily Weather History Graph

Daily Weather History Graph

Search for Another Location

Airport:

Trip Planner

Search our weather history database for the weather conditions in past years. The results will help you decide how hot, cold, wet, or windy it might be!

Date:

Astronomy

Jul. 15, 2013 Rise Set
Actual Time 5:32 AM MST 7:41 PM MST
Civil Twilight 5:03 AM MST 8:09 PM MST
Nautical Twilight 4:29 AM MST 8:43 PM MST
Astronomical Twilight 3:52 AM MST 9:20 PM MST
Moon 12:30 PM MST (7/15) 11:56 PM MST (7/15)
Length of Visible Light 15h 05m
Length of Day
14h 08m
Waxing Crescent, 46% of the Moon is Illuminated
Jul 15
Waxing Crescent
Jul 15
First Quarter
Jul 22
Full
Jul 29
Last Quarter
Aug 6
New

Hourly Weather History & Observations

Time (MST) Temp. Heat Index Dew Point Humidity Pressure Visibility Wind Dir Wind Speed Gust Speed Precip Events Conditions
12:15 AM 84.2 °F 90.9 °F 73.4 °F 70% 29.77 in 10.0 mi SW 5.8 mph - N/A   Clear
12:35 AM 82.4 °F 87.2 °F 71.6 °F 70% 29.77 in 10.0 mi NNW 3.5 mph - N/A   Clear
12:55 AM 84.2 °F 88.4 °F 69.8 °F 62% 29.77 in 10.0 mi Calm Calm - N/A   Partly Cloudy
1:15 AM 82.4 °F 88.2 °F 73.4 °F 74% 29.77 in 10.0 mi WSW 4.6 mph - N/A   Mostly Cloudy
1:35 AM 84.2 °F 89.6 °F 71.6 °F 66% 29.77 in 10.0 mi NNW 5.8 mph - N/A   Mostly Cloudy
1:55 AM 84.2 °F 89.6 °F 71.6 °F 66% 29.77 in 10.0 mi NW 3.5 mph - N/A   Scattered Clouds
2:15 AM 84.2 °F 89.6 °F 71.6 °F 66% 29.77 in 10.0 mi WNW 4.6 mph - N/A   Clear
2:35 AM 84.2 °F 89.6 °F 71.6 °F 66% 29.76 in 10.0 mi NNW 4.6 mph - N/A   Clear
2:55 AM 84.2 °F 88.4 °F 69.8 °F 62% 29.77 in 10.0 mi North 4.6 mph - N/A   Clear
3:15 AM 84.2 °F 87.3 °F 68.0 °F 58% 29.77 in 10.0 mi North 3.5 mph - N/A   Clear
3:35 AM 82.4 °F 87.2 °F 71.6 °F 70% 29.77 in 10.0 mi Calm Calm - N/A   Clear
3:55 AM 84.2 °F 89.6 °F 71.6 °F 66% 29.77 in 10.0 mi Calm Calm - N/A   Mostly Cloudy
4:15 AM 84.2 °F 88.4 °F 69.8 °F 62% 29.77 in 10.0 mi West 3.5 mph - N/A   Overcast
4:35 AM 82.4 °F 89.5 °F 75.2 °F 79% 29.77 in 10.0 mi Calm Calm - N/A   Overcast
4:55 AM 82.4 °F 90.9 °F 77.0 °F 84% 29.77 in 10.0 mi Calm Calm - N/A   Overcast
5:15 AM 84.2 °F 94.1 °F 77.0 °F 79% 29.78 in 10.0 mi Calm Calm - N/A   Overcast
5:35 AM 82.4 °F 89.5 °F 75.2 °F 79% 29.78 in 10.0 mi Calm Calm - N/A   Overcast
5:55 AM 82.4 °F 88.2 °F 73.4 °F 74% 29.78 in 10.0 mi Calm Calm - N/A   Overcast
6:15 AM 82.4 °F 87.2 °F 71.6 °F 70% 29.79 in 10.0 mi West 3.5 mph - N/A   Mostly Cloudy
6:35 AM 82.4 °F 86.3 °F 69.8 °F 66% 29.79 in 10.0 mi West 4.6 mph - N/A   Clear
6:55 AM 84.2 °F 87.3 °F 68.0 °F 58% 29.79 in 10.0 mi Calm Calm - N/A   Clear
7:15 AM 87.8 °F 90.4 °F 66.2 °F 49% 29.80 in 10.0 mi Calm Calm - N/A   Clear
7:35 AM 87.8 °F 90.4 °F 66.2 °F 49% 29.80 in 10.0 mi West 3.5 mph - N/A   Clear
7:55 AM 89.6 °F 93.4 °F 68.0 °F 49% 29.80 in 10.0 mi SW 4.6 mph - N/A   Clear
8:15 AM 89.6 °F 92.2 °F 66.2 °F 46% 29.81 in 10.0 mi SW 6.9 mph - N/A   Clear
8:35 AM 91.4 °F 95.4 °F 68.0 °F 46% 29.81 in 10.0 mi South 5.8 mph - N/A   Clear
8:55 AM 91.4 °F 94.0 °F 66.2 °F 43% 29.81 in 10.0 mi SSE 5.8 mph - N/A   Clear
9:15 AM 91.4 °F 94.0 °F 66.2 °F 43% 29.81 in 10.0 mi South 4.6 mph - N/A   Clear
9:35 AM 93.2 °F 94.9 °F 64.4 °F 38% 29.80 in 10.0 mi South 4.6 mph - N/A   Clear
9:55 AM 93.2 °F 96.2 °F 66.2 °F 41% 29.80 in 10.0 mi South 4.6 mph - N/A   Clear
10:15 AM 95.0 °F 98.5 °F 66.2 °F 39% 29.80 in 10.0 mi SSE 8.1 mph - N/A   Clear
10:35 AM 95.0 °F 97.0 °F 64.4 °F 36% 29.80 in 10.0 mi South 6.9 mph - N/A   Clear
10:55 AM 98.6 °F 101.0 °F 64.4 °F 32% 29.79 in 10.0 mi SSE 8.1 mph - N/A   Clear
11:15 AM 98.6 °F 101.0 °F 64.4 °F 32% 29.79 in 10.0 mi South 11.5 mph - N/A   Clear
11:35 AM 100.4 °F 103.6 °F 64.4 °F 31% 29.78 in 10.0 mi South 9.2 mph - N/A   Clear
11:55 AM 100.4 °F 103.6 °F 64.4 °F 31% 29.78 in 10.0 mi South 11.5 mph 16.1 mph N/A   Clear
12:15 PM 102.2 °F 104.2 °F 62.6 °F 27% 29.77 in 10.0 mi SSE 11.5 mph - N/A   Clear
12:35 PM 102.2 °F 104.2 °F 62.6 °F 27% 29.76 in 10.0 mi SSE 12.7 mph - N/A   Clear
12:55 PM 102.2 °F 104.2 °F 62.6 °F 27% 29.75 in 10.0 mi SSE 9.2 mph - N/A   Clear
1:15 PM 104.0 °F 105.3 °F 60.8 °F 24% 29.74 in 10.0 mi South 11.5 mph - N/A   Clear
1:35 PM 104.0 °F 105.3 °F 60.8 °F 24% 29.72 in 10.0 mi South 13.8 mph - N/A   Clear
1:55 PM 104.0 °F 104.6 °F 59.0 °F 23% 29.72 in 10.0 mi South 10.4 mph 18.4 mph N/A   Clear
2:15 PM 107.6 °F 108.2 °F 59.0 °F 20% 29.70 in 10.0 mi South 12.7 mph 18.4 mph N/A   Clear
2:35 PM 107.6 °F 108.2 °F 59.0 °F 20% 29.70 in 10.0 mi SSE 13.8 mph 17.3 mph N/A   Clear
2:55 PM 105.8 °F 105.5 °F 57.2 °F 20% 29.68 in 10.0 mi SSW 11.5 mph - N/A   Clear
3:15 PM 105.8 °F 105.5 °F 57.2 °F 20% 29.67 in 10.0 mi SSW 12.7 mph - N/A   Partly Cloudy
3:35 PM 107.6 °F 107.5 °F 57.2 °F 19% 29.66 in 10.0 mi South 8.1 mph - N/A   Partly Cloudy
3:55 PM 107.6 °F 107.5 °F 57.2 °F 19% 29.66 in 10.0 mi WSW 13.8 mph 20.7 mph N/A   Partly Cloudy
4:15 PM 105.8 °F 104.9 °F 55.4 °F 19% 29.66 in 10.0 mi South 4.6 mph - N/A   Clear
4:35 PM 107.6 °F 107.5 °F 57.2 °F 19% 29.66 in 10.0 mi SW 8.1 mph - N/A   Scattered Clouds
4:55 PM 107.6 °F 106.8 °F 55.4 °F 18% 29.66 in 10.0 mi WSW 11.5 mph 19.6 mph N/A   Partly Cloudy
5:15 PM 107.6 °F 106.8 °F 55.4 °F 18% 29.65 in 10.0 mi West 9.2 mph - N/A   Partly Cloudy
5:35 PM 105.8 °F 105.5 °F 57.2 °F 20% 29.65 in 10.0 mi North 15.0 mph - N/A   Scattered Clouds
5:55 PM 105.8 °F 105.5 °F 57.2 °F 20% 29.64 in 10.0 mi North 17.3 mph - N/A   Scattered Clouds
6:15 PM 104.0 °F 103.4 °F 57.2 °F 21% 29.65 in 10.0 mi North 15.0 mph - N/A   Clear
6:35 PM 104.0 °F 103.4 °F 57.2 °F 21% 29.66 in 10.0 mi North 13.8 mph - N/A   Clear
6:55 PM 100.4 °F 100.2 °F 59.0 °F 25% 29.67 in 10.0 mi Calm Calm - N/A   Clear
7:15 PM 100.4 °F 100.2 °F 59.0 °F 25% 29.67 in 10.0 mi NE 6.9 mph - N/A   Clear
7:35 PM 100.4 °F 99.7 °F 57.2 °F 24% 29.69 in 10.0 mi NNE 4.6 mph - N/A   Scattered Clouds
7:55 PM 96.8 °F 96.2 °F 59.0 °F 28% 29.71 in 10.0 mi SSE 12.7 mph 20.7 mph N/A   Mostly Cloudy
8:15 PM 95.0 °F 94.4 °F 59.0 °F 30% 29.72 in 10.0 mi Calm Calm - N/A   Mostly Cloudy
8:35 PM 93.2 °F 93.3 °F 60.8 °F 34% 29.73 in 10.0 mi Calm Calm - N/A   Overcast
8:55 PM 93.2 °F 93.3 °F 60.8 °F 34% 29.74 in 10.0 mi ESE 9.2 mph - N/A   Overcast
9:15 PM 91.4 °F 92.1 °F 62.6 °F 38% 29.74 in 10.0 mi South 4.6 mph - N/A   Overcast
9:35 PM 91.4 °F 91.4 °F 60.8 °F 36% 29.74 in 10.0 mi NNE 3.5 mph - N/A   Overcast
9:55 PM 93.2 °F 92.6 °F 59.0 °F 32% 29.74 in 10.0 mi NNW 4.6 mph - N/A   Overcast
10:15 PM 93.2 °F 92.6 °F 59.0 °F 32% 29.74 in 10.0 mi NE 4.6 mph - N/A   Overcast
10:35 PM 89.6 °F 92.2 °F 66.2 °F 46% 29.74 in 10.0 mi SE 4.6 mph - N/A   Overcast
10:55 PM 87.8 °F 90.4 °F 66.2 °F 49% 29.74 in 10.0 mi SSE 5.8 mph - N/A   Overcast
11:15 PM 87.8 °F 90.4 °F 66.2 °F 49% 29.74 in 10.0 mi West 3.5 mph - N/A   Mostly Cloudy
11:35 PM 87.8 °F 90.4 °F 66.2 °F 49% 29.75 in 10.0 mi Calm Calm - N/A   Mostly Cloudy
11:55 PM 89.6 °F 91.1 °F 64.4 °F 43% 29.76 in 10.0 mi NE 4.6 mph - N/A   Mostly Cloudy